[[{"header":{"parameterUnit":"m.s-1","parameterCategory":1,"la1":30.2992,"la2":30.254,"lo1":-89.0895,"lo2":-89.0443,"dy":0.0025,"dx":0.0025,"nx":19,"ny":19,"refTime":"2026-04-22T03:00:00:Z","depth":0,"parameterNumber":2,"parameterNumberName":"U-component_of_WINDS"},"data":[0,0,0,-4.6834,-4.6839,-4.7042,-4.7043,-4.7296,-4.7298,0,0,0,0,0,0,0,0,0,0,0,-4.6772,-4.6774,-4.6834,-4.6839,-4.7042,-4.7043,-4.7296,-4.7298,0,0,0,0,0,0,0,0,0,0,0,-4.6771,-4.6773,-4.6775,-4.684,-4.7042,-4.7043,-4.7295,-4.7144,0,0,0,0,0,0,0,0,0,0,-4.6948,-4.6888,-4.6773,-4.6775,-4.6841,-4.7041,-4.7043,-4.7137,-4.7153,-4.7202,0,-4.7246,0,-4.7276,-4.7315,-4.7316,0,0,0,-4.684,-4.6874,-4.6931,-4.6776,-4.6843,-4.7041,-4.6951,-4.7146,-4.7165,-4.7224,-4.725,-4.7259,-4.7281,-4.7317,-4.7318,-4.7597,-4.7598,0,0,-4.6829,-4.6807,-4.6918,-4.6943,-4.6913,-4.6944,-4.6957,-4.7158,-4.7183,-4.7251,-4.7265,-4.7285,-4.7318,-4.732,-4.7596,-4.7597,0,0,0,-4.6796,-4.6799,-4.6851,-4.6933,-4.697,-4.695,-4.6965,-4.7174,-4.7193,-4.7268,-4.7288,-4.732,-4.7323,-4.7594,-4.7596,-4.7634,0,0,0,-4.6789,-4.678,-4.6846,-4.6835,-4.6966,-4.7075,-4.6977,-4.7179,-4.7203,-4.7286,-4.732,-4.7325,-4.7593,-4.7595,-4.763,-4.7654,0,0,0,-4.6759,-4.6776,-4.6805,-4.6833,-4.692,-4.7072,-4.7103,-4.7185,-4.7215,-4.7316,-4.7326,-4.7592,-4.7595,-4.7626,-4.7649,-4.7719,0,0,0,-4.6721,-4.6837,-4.6805,-4.6942,-4.6918,-4.7096,-4.7102,-4.7235,-4.7327,-4.7321,-4.7593,-4.7596,-4.7625,-4.7645,-4.7715,-4.7772,-4.7794,0,0,-4.6854,-4.6852,-4.6934,-4.6912,-4.7089,-4.7066,-4.7249,-4.7354,-4.7384,-4.7524,-4.7531,-4.7631,-4.7648,-4.7718,-4.7934,-4.7951,0,0,0,-4.6969,-4.7027,-4.7079,-4.7166,-4.725,-4.7322,-4.7402,-4.7441,-4.756,-4.7452,-4.7678,-4.7689,-4.7731,-4.7758,-4.7774,-4.7809,-4.7609,-4.7609,-4.7608,-4.7123,-4.7156,-4.7294,-4.7351,-4.7435,-4.7516,-4.7586,-4.7652,-4.7661,-4.7714,-4.7754,-4.7881,-4.7913,-4.7924,-4.7961,-4.779,-4.779,-4.779,-4.779,-4.7319,-4.7405,-4.7415,-4.7551,-4.7585,-4.77,-4.7782,-4.7785,-4.7895,-4.7853,-4.7892,-4.784,-4.7943,-4.7976,-4.7793,-4.7793,-4.7792,-4.7792,-4.7792,-4.742,-4.7467,-4.7514,-4.7641,-4.7736,-4.7791,-4.7896,-4.7924,-4.7951,-4.799,-4.8033,-4.8033,-4.8032,-4.8009,-4.801,-4.801,-4.8011,-4.8011,-4.8011,-4.7505,-4.7557,-4.7643,-4.7742,-4.78,-4.7881,-4.7964,-4.8023,-4.8094,-4.8105,-4.8106,-4.8107,-4.7948,-4.7905,-4.8018,-4.8017,-4.8016,-4.8015,-4.8015,-4.7685,-4.7649,-4.7781,-4.784,-4.7958,-4.8049,-4.8084,-4.82,-4.8253,-4.8303,-4.8298,-4.8177,-4.8176,-4.8164,-4.8129,-4.8293,-4.8293,-4.8293,-4.8293,-4.7768,-4.7771,-4.7912,-4.8004,-4.8097,-4.8143,-4.8289,-4.8355,-4.8417,-4.8451,-4.8433,-4.839,-4.8377,-4.8383,-4.8367,-4.8333,-4.8546,-4.8546,-4.8546,-4.7878,-4.7892,-4.8011,-4.8073,-4.8167,-4.8247,-4.8385,-4.8488,-4.8552,-4.8557,-4.8478,-4.8467,-4.8398,-4.8374,-4.8373,-4.8347,-4.8287,0,0]},{"header":{"parameterUnit":"m.s-1","parameterCategory":1,"la1":30.2992,"la2":30.254,"lo1":-89.0895,"lo2":-89.0443,"dy":0.0025,"dx":0.0025,"nx":19,"ny":19,"refTime":"2026-04-22T03:00:00:Z","depth":0,"parameterNumber":3,"parameterNumberName":"V-component_of_WINDS"},"data":[0,0,0,4.0917,4.0917,4.0939,4.0939,4.0981,4.0981,0,0,0,0,0,0,0,0,0,0,0,4.0918,4.0918,4.0916,4.0917,4.0939,4.0939,4.0981,4.0981,0,0,0,0,0,0,0,0,0,0,0,4.0918,4.0918,4.0919,4.0917,4.0939,4.0939,4.0981,4.0959,0,0,0,0,0,0,0,0,0,0,4.0935,4.0944,4.0918,4.0919,4.0918,4.0939,4.0939,4.0958,4.0961,4.0976,0,4.0993,0,4.0988,4.0985,4.0985,0,0,0,4.0911,4.0942,4.0941,4.0919,4.0918,4.0939,4.0928,4.0959,4.0962,4.098,4.0993,4.0994,4.0988,4.0985,4.0986,4.1096,4.1097,0,0,4.091,4.0926,4.0939,4.0943,4.0941,4.0927,4.0929,4.0961,4.0976,4.0993,4.0995,4.0989,4.0986,4.0986,4.1095,4.1096,0,0,0,4.0911,4.0925,4.0923,4.0942,4.0945,4.0928,4.093,4.0975,4.0973,4.0995,4.099,4.0986,4.0987,4.1095,4.1096,4.1149,0,0,0,4.091,4.0926,4.0923,4.0933,4.0945,4.096,4.0943,4.097,4.0974,4.0989,4.0986,4.0987,4.1094,4.1095,4.1146,4.1172,0,0,0,4.0914,4.0926,4.0932,4.0934,4.0944,4.0959,4.0959,4.0971,4.0971,4.0985,4.0987,4.1093,4.1095,4.1143,4.1167,4.1205,0,0,0,4.0922,4.0979,4.0933,4.0995,4.0944,4.0993,4.0958,4.0994,4.1013,4.0986,4.1094,4.1096,4.1142,4.1164,4.1201,4.1238,4.1256,0,0,4.1003,4.099,4.1025,4.0984,4.1045,4.0988,4.1057,4.106,4.1047,4.1081,4.1083,4.1147,4.1166,4.1204,4.1349,4.1363,0,0,0,4.1056,4.1081,4.1094,4.1113,4.1116,4.1121,4.1112,4.1113,4.1141,4.1068,4.1171,4.1182,4.1204,4.122,4.1232,4.1249,4.1105,4.1104,4.1104,4.1191,4.1172,4.1228,4.1212,4.1231,4.1221,4.1235,4.1235,4.121,4.1235,4.1244,4.1334,4.1355,4.1363,4.1381,4.1263,4.1263,4.1264,4.1264,4.1306,4.1338,4.1305,4.1347,4.1327,4.1362,4.1355,4.1337,4.1367,4.1326,4.1344,4.1299,4.1379,4.1394,4.1268,4.1267,4.1266,4.1266,4.1266,4.1391,4.1403,4.1404,4.143,4.1452,4.1434,4.1465,4.1445,4.1427,4.1445,4.1452,4.1451,4.1447,4.145,4.1451,4.1451,4.1451,4.1452,4.1452,4.1479,4.1478,4.1506,4.1516,4.1525,4.1536,4.1527,4.1537,4.1542,4.1525,4.1525,4.1497,4.1391,4.1364,4.1456,4.1456,4.1455,4.1455,4.1454,4.16,4.157,4.1613,4.1623,4.1632,4.1655,4.1631,4.1651,4.1656,4.1672,4.1641,4.1566,4.1551,4.1541,4.1518,4.1646,4.1646,4.1646,4.1646,4.1671,4.1662,4.1701,4.1718,4.1733,4.1716,4.1765,4.1759,4.1749,4.1751,4.173,4.1699,4.169,4.168,4.1667,4.1646,4.1802,4.1802,4.1803,4.1744,4.1735,4.178,4.177,4.1776,4.1782,4.1828,4.1849,4.1831,4.1808,4.1751,4.1745,4.1694,4.1679,4.1654,4.1635,4.1595,0,0]}]]